Marianna, FL

3:40 AM CDT on October 24, 2017 (GMT -0500)
Marianna Municipal

Weather History for KMAI - March, 2013

Change the Weather History Date:

Thursday, March 21, 2013

  Actual Average Record
Temperature  
Mean Temperature 53 °F 61 °F  
Max Temperature 65 °F 74 °F 87 °F (2017)
Min Temperature 40 °F 49 °F 38 °F (2016)
Degree Days  
Heating Degree Days 12    
Month to date heating degree days 215  
Since 1 July heating degree days 1218  
Cooling Degree Days 0    
Month to date cooling degree days 6  
Year to date cooling degree days 65  
Growing Degree Days 3 (Base 50)    
Moisture  
Dew Point 29 °F    
Average Humidity 49    
Maximum Humidity 82    
Minimum Humidity 16    
Precipitation  
Precipitation 0.00 in 0.21 in 0.01 in (2001)
Month to date precipitation 2.34 3.47  
Year to date precipitation 16.21 13.45  
Sea Level Pressure  
Sea Level Pressure 29.97 in    
Wind  
Wind Speed 5 mph (NW)    
Max Wind Speed 17 mph    
Max Gust Speed 22 mph    
Visibility 10 miles    
Events      
T = Trace of Precipitation, MM = Missing Value Source: NWS Daily Summary

Daily Weather History Graph

Daily Weather History Graph

Search for Another Location

Airport or City:

Trip Planner

Search our weather history database for the weather conditions in past years. The results will help you decide how hot, cold, wet, or windy it might be!

Date:

Astronomy

Mar. 21, 2013 Rise Set
Actual Time 6:42 AM CDT 6:53 PM CDT
Civil Twilight 6:18 AM CDT 7:17 PM CDT
Nautical Twilight 5:50 AM CDT 7:45 PM CDT
Astronomical Twilight 5:22 AM CDT 8:13 PM CDT
Moon 1:41 PM CDT (3/21) 2:44 AM CDT (3/21)
Length of Visible Light 12h 58m
Length of Day
12h 10m
Waxing Gibbous, 69% of the Moon is Illuminated
Mar 21
Waxing Gibbous
Mar 27
Full
Apr 2
Last Quarter
Apr 10
New
Apr 18
First Quarter

Hourly Weather History & Observations

Time (CDT) Temp. Windchill Dew Point Humidity Pressure Visibility Wind Dir Wind Speed Gust Speed Precip Events Conditions
12:53 AM 45.0 °F 43.5 °F 34.0 °F 65% 29.98 in 10.0 mi West 3.5 mph - N/A   Clear
1:53 AM 46.0 °F 42.5 °F 33.1 °F 61% 29.98 in 10.0 mi NW 6.9 mph - N/A   Clear
2:53 AM 45.0 °F 42.6 °F 33.1 °F 63% 29.98 in 10.0 mi NW 4.6 mph - N/A   Clear
3:53 AM 44.1 °F 42.5 °F 32.0 °F 63% 29.98 in 10.0 mi West 3.5 mph - N/A   Clear
4:53 AM 43.0 °F 40.3 °F 30.9 °F 62% 29.98 in 10.0 mi NW 4.6 mph - N/A   Clear
5:53 AM 44.1 °F - 30.9 °F 60% 29.99 in 10.0 mi Calm Calm - N/A   Clear
6:53 AM 42.1 °F - 33.1 °F 70% 30.00 in 10.0 mi Calm Calm - N/A   Clear
7:53 AM 43.0 °F - 37.0 °F 80% 30.01 in 10.0 mi Calm Calm - N/A   Clear
8:53 AM 50.0 °F - 30.9 °F 48% 30.02 in 10.0 mi North 8.1 mph - N/A   Clear
9:53 AM 52.0 °F - 28.0 °F 40% 30.03 in 10.0 mi NNW 8.1 mph - N/A   Clear
10:53 AM 55.0 °F - 21.9 °F 28% 30.04 in 10.0 mi NNW 12.7 mph - N/A   Clear
11:53 AM 57.9 °F - 21.0 °F 24% 30.02 in 10.0 mi NNW 13.8 mph 19.6 mph N/A   Clear
12:53 PM 57.9 °F - 21.0 °F 24% 29.99 in 10.0 mi NW 10.4 mph - N/A   Clear
1:53 PM 61.0 °F - 19.9 °F 21% 29.97 in 10.0 mi NW 10.4 mph 16.1 mph N/A   Partly Cloudy
2:53 PM 62.1 °F - 19.9 °F 20% 29.95 in 10.0 mi WNW 10.4 mph - N/A   Clear
3:53 PM 63.0 °F - 19.9 °F 19% 29.93 in 10.0 mi WNW 5.8 mph - N/A   Clear
4:53 PM 63.0 °F - 21.0 °F 20% 29.91 in 10.0 mi Variable 4.6 mph - N/A   Clear
5:53 PM 64.0 °F - 18.0 °F 17% 29.91 in 10.0 mi WNW 5.8 mph - N/A   Clear
6:53 PM 60.1 °F - 23.0 °F 24% 29.92 in 10.0 mi Calm Calm - N/A   Clear
7:53 PM 50.0 °F - 33.1 °F 52% 29.93 in 10.0 mi South 3.5 mph - N/A   Clear
8:53 PM 50.0 °F - 37.0 °F 61% 29.94 in 10.0 mi Calm Calm - N/A   Clear
9:53 PM 48.9 °F - 37.9 °F 66% 29.94 in 10.0 mi Calm Calm - N/A   Clear
10:53 PM 46.9 °F - 37.9 °F 71% 29.96 in 10.0 mi Calm Calm - N/A   Clear
11:53 PM 50.0 °F - 37.0 °F 61% 29.95 in 10.0 mi Calm Calm - N/A   Mostly Cloudy